ECMWFFLT1_850_thetae_057.txt.gz
Theta_e
311 310 310 309 309 309 309 309 310 310 310 311 312 312 312 311 313 315 314 313 313 313 312 312 313 311 308 307 305 302 300 298 298 297 297 297 297 297 298 298 299 299 299 299 298 298 298 298 298 298 298 298 297 296 295 294 293 292 291 290 290 289
312 311 310 309 309 308 309 309 309 310 310 311 311 311 310 311 313 314 314 313 312 312 312 312 312 308 305 305 303 300 299 298 297 297 297 297 297 297 297 298 299 299 299 299 298 298 298 298 298 298 298 297 296 295 294 293 292 291 290 290 289 289
312 310 309 309 308 308 308 309 309 310 310 310 310 309 309 311 312 313 314 314 313 312 312 312 310 306 303 303 301 299 298 297 297 297 296 297 297 297 297 298 298 299 299 298 298 298 297 297 297 297 297 296 295 295 294 292 291 290 290 289 289 289
311 310 309 308 308 308 308 308 309 310 310 309 309 309 309 310 311 312 313 313 313 312 312 313 309 303 302 301 299 298 297 297 297 296 296 296 296 297 297 297 298 298 298 297 297 297 296 296 297 296 296 295 294 294 293 292 291 290 289 289 289 288
311 310 309 308 308 307 307 307 308 309 310 309 309 309 309 309 310 312 312 312 312 312 312 312 307 302 301 300 298 297 297 296 296 296 296 296 296 296 296 297 297 297 297 296 296 296 296 296 296 295 295 294 293 293 292 291 290 290 289 288 288 288
310 309 309 308 308 307 307 307 307 308 309 309 309 309 308 309 310 311 312 311 311 311 312 311 307 302 301 300 298 297 296 296 296 296 296 296 295 296 296 296 296 296 296 296 295 295 295 295 295 294 294 293 293 292 292 291 290 289 289 288 288 287
311 310 309 308 308 307 307 306 306 306 308 309 309 309 309 308 309 311 311 310 310 310 312 311 307 302 301 300 298 297 296 296 296 296 296 295 295 295 295 295 296 295 295 295 295 295 294 294 294 293 293 292 292 292 292 291 290 289 288 288 288 287
311 311 310 309 308 308 307 307 306 306 306 308 309 310 309 308 308 310 311 310 310 310 311 311 308 303 301 299 297 296 296 295 295 295 295 295 295 295 295 295 295 295 295 295 294 294 294 293 293 292 292 292 292 292 291 291 290 289 288 288 287 287
312 311 310 309 308 307 307 307 306 306 305 306 308 310 310 308 308 309 311 311 310 310 311 311 309 305 301 299 297 296 296 295 295 295 295 295 295 295 295 295 295 295 294 294 294 293 293 293 292 292 292 291 291 291 291 290 290 289 288 288 287 287
312 311 311 310 309 308 307 307 306 306 305 305 306 308 309 309 308 309 310 311 311 311 311 312 310 306 302 300 298 296 296 295 295 295 295 295 295 295 295 295 294 294 294 294 293 292 292 292 292 292 291 291 291 291 291 290 290 289 288 287 287 287
314 312 311 310 310 309 308 307 306 306 305 305 305 306 308 308 308 309 310 311 311 311 311 311 310 307 303 300 298 296 295 295 295 295 294 294 294 294 294 294 294 294 294 293 293 292 292 292 292 291 291 291 291 291 291 290 290 289 288 287 287 287
314 313 311 310 310 310 309 309 308 307 306 305 304 305 307 308 309 309 310 311 311 311 312 311 309 307 304 301 299 297 295 295 295 294 294 294 294 294 294 293 293 293 293 293 292 292 292 292 291 291 291 291 291 291 290 290 290 289 288 287 287 287
314 313 313 312 311 311 310 309 308 307 306 305 305 304 305 307 309 309 310 311 311 311 311 311 309 306 303 302 299 297 295 295 294 294 294 294 294 294 293 293 293 293 292 292 292 291 291 291 291 291 290 291 291 290 290 290 290 289 288 288 287 287
315 315 315 315 312 311 311 309 308 307 306 305 304 303 304 306 308 309 310 310 310 310 310 310 308 305 302 301 299 297 295 294 294 294 294 294 294 293 293 292 292 292 292 291 291 291 291 291 291 290 290 290 291 290 290 290 289 289 288 288 288 288
317 316 316 315 313 311 311 309 308 307 306 305 304 303 303 305 307 309 309 310 310 310 310 309 307 303 301 300 299 297 295 294 294 294 294 294 293 292 292 292 292 292 291 291 291 291 291 290 290 290 290 291 290 290 290 290 289 289 288 288 288 288
317 317 316 315 313 310 309 308 307 306 305 304 303 303 303 304 306 308 309 309 310 310 310 309 306 303 301 300 298 297 295 295 294 294 293 293 292 292 292 292 291 291 291 291 291 290 290 290 290 290 291 291 290 290 290 289 289 289 288 288 288 288
317 317 316 314 311 309 308 307 306 305 304 304 304 303 303 304 306 307 308 309 309 309 308 307 305 303 301 299 298 297 296 295 295 294 293 293 292 292 291 291 291 291 291 291 290 290 290 291 290 290 291 290 290 290 289 289 289 289 288 288 288 288
315 315 313 311 310 308 307 307 305 305 304 303 303 303 303 304 304 305 307 307 307 307 307 306 305 303 301 300 298 297 297 296 295 294 293 292 292 291 291 291 291 291 291 291 290 290 291 291 290 290 290 290 289 289 289 289 289 289 288 288 288 288
313 312 310 309 308 307 306 305 304 304 303 302 302 302 302 302 303 304 305 305 306 306 306 305 304 302 301 300 299 299 298 298 296 294 293 292 291 291 291 291 291 291 290 290 290 291 291 291 290 290 290 290 289 289 289 289 289 289 288 288 288 288
311 310 308 307 307 306 305 305 304 303 302 302 302 301 301 302 302 302 303 303 303 304 304 303 302 301 301 300 300 300 299 298 296 294 293 292 291 291 291 291 291 290 290 290 290 291 291 290 290 290 289 289 289 288 289 289 289 289 288 288 288 287
309 308 308 307 307 306 305 304 303 303 302 302 301 301 301 301 301 301 301 301 301 301 301 301 300 300 300 300 300 300 299 297 295 293 292 291 291 291 290 290 290 290 290 290 291 291 290 290 290 289 289 288 288 288 288 288 288 288 288 288 288 287
308 309 309 308 307 307 306 305 305 304 304 303 302 303 303 303 301 300 300 299 299 299 299 299 299 299 299 299 298 298 296 295 293 292 291 291 290 290 290 290 290 290 291 291 290 290 290 289 289 289 289 288 288 288 288 288 288 288 288 288 288 288
309 309 309 308 307 307 307 307 306 306 305 304 304 304 303 302 301 300 299 299 298 298 298 298 298 297 297 296 296 295 294 293 292 292 291 291 291 290 290 290 291 291 290 290 289 289 289 289 289 288 288 288 288 288 288 288 288 288 288 288 288 288
309 309 308 308 308 307 307 306 306 305 305 304 304 303 301 301 300 300 299 298 298 297 297 296 296 296 295 295 294 294 293 293 292 292 292 291 291 291 290 290 290 289 289 289 288 288 288 288 288 288 288 288 288 288 288 288 288 288 288 288 287 287
308 308 307 307 306 306 305 305 305 304 304 303 302 301 301 300 299 299 298 298 297 296 296 296 295 295 294 294 293 293 292 292 291 291 291 290 290 289 289 289 288 288 288 288 288 288 288 288 288 288 288 288 288 288 288 287 287 287 287 287 287 287
306 306 305 305 304 304 303 303 303 302 302 301 300 300 299 298 298 297 297 297 296 295 295 294 294 293 293 293 292 292 291 291 291 290 290 290 289 289 289 289 288 288 288 288 288 288 288 288 287 287 287 287 287 287 287 287 287 287 287 287 287 287
304 303 303 302 301 301 301 300 300 300 299 298 298 298 297 297 297 296 296 296 295 295 295 294 294 293 293 293 292 292 292 291 291 291 290 290 290 289 289 289 289 289 289 289 289 289 289 288 288 288 287 287 287 286 286 286 286 286 286 286 286 286
300 300 299 299 298 298 298 298 298 297 297 297 297 297 297 297 296 296 296 296 295 295 295 295 295 294 294 294 293 293 293 292 292 292 291 291 291 291 291 291 291 290 290 290 291 291 291 290 289 289 288 287 287 287 286 286 286 285 285 285 285 285
297 297 297 297 297 297 297 297 297 297 296 296 296 296 296 296 296 296 296 295 295 295 294 294 294 294 294 293 293 293 293 292 292 292 292 291 291 291 291 291 291 291 291 291 291 291 290 290 289 289 288 288 287 287 286 286 286 285 284 284 284 284
295 295 295 296 296 296 296 296 296 296 296 296 295 295 295 294 294 293 293 293 293 292 292 292 292 292 291 291 291 291 291 291 291 290 290 290 290 290 290 290 290 290 290 290 290 289 289 289 289 288 288 287 287 287 286 286 286 285 285 284 284 284
294 294 294 295 295 296 296 295 295 295 294 294 293 292 292 292 291 291 291 291 291 291 291 291 291 291 290 290 290 290 290 290 290 290 290 290 290 290 290 290 290 289 289 289 289 288 288 289 288 288 287 287 287 287 286 286 286 285 285 284 284 283
293 293 294 293 294 294 294 294 293 293 292 292 292 291 291 291 291 291 291 291 291 291 291 291 290 290 290 290 290 290 290 290 290 290 290 290 290 290 289 289 289 289 289 288 288 288 288 288 288 287 287 287 287 286 286 286 286 285 284 283 282 282
293 293 293 293 292 293 292 292 292 292 291 292 292 291 292 291 291 291 291 291 291 291 291 291 291 290 290 290 290 290 290 290 290 290 290 289 289 289 289 289 289 288 288 288 288 288 287 287 287 287 286 286 286 285 285 285 284 283 283 282 281 281
293 293 293 292 292 292 292 292 292 292 292 292 291 291 292 291 291 291 291 291 291 291 291 291 290 290 290 290 290 290 290 290 290 289 289 289 289 289 289 288 288 288 288 288 288 287 287 287 287 286 286 286 285 285 284 284 283 282 281 280 279 279
293 293 292 292 292 292 292 292 292 291 291 291 291 291 291 291 291 291 291 291 291 291 290 290 290 290 290 290 290 290 290 289 289 289 289 289 289 289 288 288 288 288 288 287 287 287 287 286 286 286 285 285 285 285 284 284 283 281 280 279 278 278
293 293 292 292 292 292 292 292 291 291 291 291 291 291 291 291 291 291 291 290 290 290 290 290 290 290 290 290 289 289 289 289 289 289 289 289 289 288 288 288 288 288 287 287 287 286 286 285 285 285 284 284 283 283 283 282 281 280 279 278 278 277
293 292 292 292 292 292 292 292 291 291 291 291 291 291 291 291 291 290 290 290 290 290 290 290 290 290 290 290 290 290 289 289 289 289 289 289 289 288 288 287 287 287 287 286 286 285 285 285 284 284 283 283 282 282 282 281 279 278 278 277 277 277
292 292 292 292 292 292 291 291 291 291 291 291 291 291 291 291 290 290 290 290 290 290 290 290 290 290 290 290 290 289 289 289 289 289 289 288 288 288 287 286 286 285 285 285 285 285 284 284 283 283 283 282 282 281 281 280 279 277 277 276 276 277

ECMWFFLT1_850_thetae_060.txt.gz
Theta_e
316 315 315 313 312 312 310 310 309 309 309 309 309 309 309 309 311 311 311 313 315 315 314 312 312 315 316 315 313 311 312 313 313 311 306 301 299 297 297 296 296 296 297 298 298 299 299 299 299 300 300 300 300 299 299 299 299 298 298 296 294 293
316 315 314 313 312 311 310 309 309 309 309 309 309 309 309 309 310 311 312 313 315 315 313 311 313 315 314 314 312 311 312 312 312 310 305 299 298 297 296 296 296 296 297 298 298 299 299 299 299 299 299 299 299 298 298 298 298 298 297 295 293 291
315 315 314 313 312 311 310 309 309 309 309 309 309 309 309 309 310 311 312 314 316 314 312 311 313 314 313 312 311 311 312 311 310 309 303 298 297 297 296 296 296 296 297 298 298 298 298 299 299 299 298 298 298 298 297 298 298 298 297 295 293 291
316 315 314 313 312 311 311 310 309 309 309 309 309 309 309 309 310 311 312 314 315 313 312 312 312 312 312 312 311 311 312 310 309 307 302 298 297 296 296 296 296 296 297 297 298 298 298 298 298 298 298 298 297 297 297 297 297 297 296 294 293 291
316 315 314 314 312 312 311 310 309 309 309 309 308 309 309 308 309 311 312 313 314 312 311 313 313 312 312 311 310 311 311 309 307 305 300 297 296 296 296 295 295 296 297 297 297 297 297 297 297 297 297 297 296 296 296 296 296 296 295 294 292 290
317 316 315 315 313 312 311 310 310 309 308 308 308 309 309 308 309 310 311 312 312 310 311 313 313 312 311 310 310 310 310 308 306 303 299 296 296 296 295 295 295 296 296 296 296 296 296 296 296 296 295 295 295 294 295 295 295 295 294 292 291 290
317 317 316 315 314 313 311 310 310 309 308 308 308 309 309 308 308 309 310 311 310 309 311 313 313 313 312 310 310 311 310 307 304 302 298 296 296 295 295 295 295 295 296 296 296 296 295 295 295 295 294 294 294 293 293 294 294 294 293 292 291 290
317 317 317 316 314 313 312 310 310 309 308 308 308 308 308 308 308 308 309 309 308 309 310 312 312 313 312 311 311 311 309 306 303 300 297 295 295 295 295 295 295 295 295 295 295 295 295 294 294 293 293 293 293 293 293 293 293 293 292 291 290 290
318 318 317 316 315 313 312 311 310 309 308 308 308 307 307 308 308 308 308 307 307 308 309 311 312 312 312 311 311 310 308 304 302 299 296 295 295 294 294 294 294 295 295 295 295 294 294 293 293 293 292 292 292 292 292 293 292 292 292 291 291 289
318 318 318 317 315 313 313 312 310 309 308 308 307 307 307 307 307 307 307 307 307 307 308 310 311 311 311 310 310 309 306 302 300 297 295 294 294 294 294 294 294 295 294 294 294 293 293 293 292 292 292 292 292 292 292 292 292 292 292 292 291 289
318 318 317 317 315 314 313 312 311 310 309 308 307 306 307 307 307 307 306 306 307 307 307 309 310 310 310 309 309 308 305 301 298 296 294 294 294 294 294 294 294 294 294 294 293 293 293 292 292 292 292 291 291 291 291 291 291 292 293 292 290 289
318 318 317 317 316 315 314 313 312 312 310 309 307 306 306 306 306 307 306 306 306 307 307 308 309 310 309 309 309 308 305 300 297 296 294 294 294 293 293 294 294 294 293 293 293 293 293 292 292 292 292 291 291 291 291 291 291 293 293 292 291 290
318 318 318 317 317 316 315 314 312 311 311 310 308 307 306 305 306 306 306 306 306 307 307 307 308 309 309 309 309 308 306 302 297 295 294 293 293 293 293 293 293 293 293 293 293 292 292 292 292 292 291 291 290 290 290 290 291 292 293 292 291 290
318 317 318 318 317 317 315 314 312 311 311 311 309 307 306 305 305 305 305 306 306 307 307 307 307 308 309 309 308 308 307 304 300 296 294 293 293 293 293 293 293 293 293 293 292 292 292 292 292 292 291 290 290 290 290 290 291 292 293 293 292 291
317 317 317 317 317 316 315 313 311 311 310 310 308 307 306 305 305 304 304 305 306 306 307 307 307 308 309 309 309 309 308 307 304 299 296 294 293 293 292 293 293 293 293 292 292 292 292 292 292 291 290 290 290 290 290 290 291 292 293 293 292 291
316 317 317 317 317 316 314 312 310 309 309 308 307 306 305 304 304 304 304 304 304 305 306 307 307 308 309 309 310 309 308 307 306 303 299 295 293 293 292 292 292 292 292 292 292 292 292 292 291 291 290 290 290 290 290 290 292 293 293 293 292 291
316 316 316 316 316 315 313 311 310 309 308 308 307 306 304 304 303 303 303 303 303 304 305 306 307 308 308 309 309 308 307 306 305 304 302 297 294 292 292 292 292 292 292 292 292 292 292 292 291 290 290 290 289 289 290 291 292 292 292 293 292 291
315 315 315 315 314 314 313 312 310 309 308 307 306 304 304 303 302 302 302 302 302 303 304 305 306 307 307 308 307 306 306 305 304 303 301 299 295 292 291 291 292 291 291 291 291 292 293 291 290 290 290 289 289 289 290 291 292 292 292 292 291 290
314 314 314 313 313 313 312 311 309 308 306 305 304 303 303 302 301 301 301 301 301 302 302 303 305 306 306 306 306 305 304 304 302 300 299 297 295 293 292 291 291 291 290 291 292 292 292 291 290 290 289 289 289 289 290 291 292 292 292 291 290 290
312 312 312 312 312 311 310 309 307 306 305 304 303 302 302 301 301 301 301 301 301 301 301 302 304 305 305 304 304 304 303 302 300 298 297 296 295 293 292 290 290 290 290 292 293 292 291 290 290 290 289 289 289 289 290 292 292 292 291 290 290 289
311 311 311 311 310 309 308 307 306 305 304 303 302 302 301 301 301 301 300 300 300 301 301 302 303 303 303 303 302 301 300 299 298 297 297 296 295 294 292 291 291 291 292 293 293 291 290 290 290 290 290 289 288 288 290 292 292 291 290 289 289 289
310 310 309 309 308 307 306 306 305 305 304 303 302 302 301 301 300 300 300 300 300 300 300 301 301 301 301 300 300 299 298 298 297 298 298 297 297 296 296 296 295 295 295 294 292 291 290 290 290 290 289 289 288 289 290 291 290 290 289 289 288 288
308 308 307 307 307 307 306 306 305 305 303 302 302 301 300 300 299 299 299 299 299 299 299 299 299 299 298 298 298 297 297 297 297 297 297 297 297 296 296 295 295 294 294 293 292 291 290 289 289 289 289 289 290 290 290 290 289 289 288 288 288 288
307 307 307 307 306 306 305 305 305 304 302 301 300 299 299 298 298 297 297 297 297 297 297 297 297 297 297 297 297 297 297 296 296 296 296 295 295 294 294 294 293 292 292 291 290 290 289 289 290 290 290 290 290 290 289 289 288 288 288 287 287 287
308 308 308 307 306 305 305 304 303 302 302 300 299 299 298 298 297 297 297 297 297 297 297 297 297 297 297 297 296 296 296 295 295 295 295 294 294 293 293 293 292 292 292 291 291 291 291 291 291 290 290 289 289 288 288 288 288 287 287 287 287 287
309 308 307 307 306 305 304 303 303 302 301 301 300 300 299 299 299 298 299 299 299 299 299 298 298 297 297 296 296 295 295 294 294 293 293 292 292 291 291 291 291 290 290 290 290 290 289 289 289 288 288 287 287 287 287 287 287 286 286 286 287 287
307 307 306 305 304 303 303 302 302 302 302 301 301 300 300 300 300 299 299 299 299 298 298 297 296 296 295 294 294 293 293 292 292 291 291 291 290 290 290 289 289 289 289 289 289 289 288 288 288 288 287 287 287 286 286 286 286 286 286 285 286 286
305 305 304 304 302 302 302 301 300 301 301 301 300 300 299 299 299 298 298 297 296 296 295 295 295 294 294 293 293 292 292 292 291 291 291 290 290 290 289 289 289 289 289 289 289 289 289 288 288 288 288 287 287 287 287 286 286 286 286 285 286 286
303 303 303 302 301 300 301 300 299 299 299 299 298 298 298 297 297 296 296 296 296 295 295 295 294 294 294 294 293 293 292 292 292 291 291 291 290 290 290 290 290 290 290 290 289 289 289 288 288 288 288 288 287 287 287 287 287 287 286 286 286 286
301 300 300 300 299 298 298 298 298 298 297 297 297 297 296 296 296 296 296 295 295 295 294 294 294 293 293 293 293 292 292 292 292 291 291 291 290 290 290 290 290 290 289 289 289 289 289 289 289 288 288 288 288 288 288 287 287 287 286 286 286 286
297 297 297 297 297 297 297 297 297 296 296 296 296 295 295 295 294 294 294 293 293 293 292 292 292 292 291 291 291 291 291 291 290 290 290 290 290 290 290 290 290 290 289 289 289 289 289 289 289 288 288 288 288 288 288 287 287 287 286 285 285 285
296 296 295 295 295 296 296 296 296 295 295 295 294 293 293 293 292 292 292 291 291 291 291 291 291 291 290 290 290 290 290 290 290 290 290 290 290 290 290 290 289 289 289 289 289 289 289 289 288 288 288 288 288 288 287 287 287 286 286 285 284 284
295 294 294 294 294 295 295 294 294 294 293 293 292 292 292 291 291 291 291 291 291 291 291 291 291 290 290 290 290 290 290 290 290 290 290 290 290 290 289 289 289 289 289 289 289 289 289 289 288 288 288 288 287 287 287 286 285 285 284 283 282 282
294 294 293 293 293 293 293 293 292 292 292 292 291 291 291 291 291 291 291 291 291 291 291 291 291 290 290 290 290 290 290 290 290 290 290 289 289 289 289 289 289 289 289 289 289 289 289 289 288 288 288 287 287 286 286 285 284 283 282 280 279 279
293 293 293 293 292 292 292 292 292 291 291 291 291 291 291 291 291 291 291 291 291 291 291 291 290 290 290 290 290 290 290 290 290 290 290 290 290 289 289 289 289 289 289 289 289 288 288 288 288 287 287 286 286 286 285 284 284 282 280 279 278 278
293 293 293 293 292 292 292 292 292 291 291 291 291 291 291 291 291 291 291 291 291 291 290 290 290 290 290 290 290 290 290 290 290 290 290 290 290 289 289 289 289 289 289 288 288 288 287 287 286 286 286 285 285 285 284 284 283 282 280 278 278 278
293 293 293 293 292 292 292 292 292 291 291 291 291 291 291 291 291 291 291 290 290 290 290 290 290 290 290 290 290 290 290 290 290 290 290 289 289 289 289 289 289 288 288 287 287 286 286 286 285 285 285 285 284 284 284 283 283 282 281 279 278 277
293 293 292 292 292 292 292 292 291 291 291 291 291 291 291 291 291 291 291 291 290 290 290 290 290 290 290 290 290 290 290 290 290 290 289 289 289 288 288 288 287 287 287 287 286 285 285 285 284 284 284 283 283 283 282 282 281 281 280 279 278 277

ECMWFFLT1_850_thetae_063.txt.gz
Theta_e
318 318 317 317 316 315 315 314 314 313 312 312 311 310 310 309 309 309 308 308 310 311 311 311 312 314 315 316 317 316 315 315 313 314 316 315 313 314 315 312 307 302 298 296 296 295 295 296 297 298 299 299 300 300 300 299 298 298 298 297 296 296
318 318 317 317 316 315 315 314 314 313 312 312 311 310 310 309 309 308 308 308 309 309 310 311 313 315 317 317 315 314 314 313 313 315 316 315 313 314 314 309 304 299 297 296 295 295 295 296 297 298 299 299 299 299 299 299 298 297 297 297 296 295
318 318 317 317 316 316 315 314 314 313 312 312 311 311 310 309 309 309 308 308 308 308 309 311 313 315 316 315 314 313 312 312 314 316 315 314 314 315 312 307 301 297 296 296 295 295 295 296 297 298 299 299 299 299 298 298 298 297 297 296 295 294
318 318 317 317 317 316 315 314 314 313 312 312 311 311 310 310 309 309 309 308 308 308 309 311 313 315 316 315 314 312 311 313 315 314 313 312 312 313 310 304 298 296 296 295 295 295 295 296 297 298 298 298 298 298 298 297 297 297 297 296 295 294
318 318 318 318 317 317 316 315 314 313 312 312 311 311 310 310 309 309 309 309 308 309 310 311 312 314 315 314 313 311 310 313 315 313 311 310 311 311 308 302 297 296 295 295 295 295 295 296 297 297 298 298 298 298 297 297 297 297 296 295 294 293
318 318 318 318 318 317 317 316 315 313 312 312 311 311 310 309 309 308 308 309 308 309 310 311 311 313 314 314 312 310 311 313 313 312 311 310 310 311 308 301 296 295 295 295 295 294 295 296 296 297 297 297 297 297 297 296 296 295 295 294 293 292
317 318 318 318 318 318 317 317 316 315 313 312 311 311 310 309 309 308 308 308 308 309 310 312 312 313 314 313 311 310 312 313 312 311 310 309 310 310 307 301 296 295 295 295 294 295 295 295 295 296 296 296 296 296 295 295 294 294 294 293 293 292
317 318 318 318 317 317 317 317 316 315 314 313 311 310 310 309 309 308 308 308 308 309 310 311 312 313 314 313 311 310 311 311 311 311 310 309 310 309 307 301 296 294 295 294 294 294 294 295 295 295 295 296 295 295 294 294 293 293 293 292 292 292
318 318 318 317 317 317 317 316 316 315 314 313 312 311 310 309 309 308 308 308 308 308 309 310 311 312 313 313 311 311 311 311 311 310 310 309 309 309 306 301 296 294 294 294 294 294 294 294 294 295 295 294 294 294 293 293 293 293 292 292 292 291
318 318 318 317 317 316 317 316 316 315 314 313 312 311 310 309 308 308 308 308 308 308 308 309 310 311 312 312 310 310 311 311 311 310 309 309 309 308 305 301 296 294 294 294 294 294 294 294 294 294 294 293 293 293 292 292 292 292 292 292 291 291
318 318 318 318 317 316 316 317 316 315 314 313 312 311 310 309 308 308 308 308 308 307 307 308 309 309 311 311 309 309 310 311 310 310 309 309 309 307 304 300 295 293 293 293 293 293 293 294 293 293 293 293 293 292 292 292 291 292 293 292 291 291
318 318 318 318 317 317 317 317 317 316 314 313 313 311 310 309 308 308 307 307 308 307 306 306 307 309 310 309 308 308 310 311 310 309 309 309 308 306 303 299 295 293 293 293 293 293 293 293 293 293 293 292 292 292 291 291 291 293 293 291 290 291
318 318 318 318 317 317 317 317 317 316 314 313 313 311 310 309 308 307 307 307 307 307 306 306 306 308 307 307 307 308 310 310 309 309 308 308 306 304 302 299 295 293 293 293 293 293 293 293 293 293 292 292 292 291 291 291 293 294 292 290 290 290
318 318 317 317 317 317 317 316 316 316 315 314 313 311 310 309 308 307 307 307 307 306 306 305 305 306 306 306 306 307 308 309 309 309 308 308 306 303 301 299 296 293 293 293 293 293 293 293 293 292 293 292 292 291 290 292 294 294 291 289 289 290
317 317 317 316 316 317 316 316 316 316 315 313 312 311 310 309 308 307 306 306 306 306 306 305 305 305 305 305 305 306 307 309 309 309 309 308 306 302 299 298 295 293 292 293 293 293 293 293 293 292 293 292 292 291 291 293 294 293 290 289 289 290
316 316 316 316 316 316 316 316 316 315 314 313 312 311 309 309 308 307 306 306 305 305 305 305 304 304 305 305 306 306 307 308 308 308 308 307 305 301 298 296 294 292 292 292 292 292 293 292 292 292 292 292 292 291 291 293 293 292 289 289 289 290
315 315 315 315 315 315 315 315 315 314 313 312 312 310 309 308 307 306 305 305 304 304 304 304 304 304 304 305 306 306 306 307 307 307 307 306 305 302 297 294 293 292 291 292 292 292 292 292 292 291 291 292 291 290 291 293 293 291 289 290 290 290
314 314 314 314 314 314 315 315 314 314 312 312 311 309 308 307 305 305 304 304 303 303 303 303 303 304 304 305 306 306 306 306 306 306 306 304 303 302 298 294 292 291 291 291 291 291 291 291 291 290 291 292 291 290 292 293 292 290 290 290 290 290
314 313 313 313 313 313 314 314 313 313 312 311 310 308 307 305 304 304 303 302 302 302 302 302 302 303 303 304 305 306 306 306 306 306 305 304 303 302 300 295 292 290 290 290 290 290 290 290 290 290 291 291 290 290 293 293 292 291 290 290 290 290
314 313 313 313 312 312 312 312 312 311 310 309 308 306 305 304 304 303 302 301 301 301 301 301 301 302 302 303 304 305 305 305 305 304 303 303 301 301 300 298 295 292 290 289 289 289 289 289 289 290 290 290 289 291 293 293 291 290 290 290 290 290
314 313 313 312 311 311 310 310 310 309 308 307 306 305 304 303 302 302 301 300 300 300 300 300 300 300 301 301 302 303 303 303 302 301 301 300 299 298 297 296 295 293 291 288 288 288 288 288 289 290 289 289 290 292 294 292 291 290 290 290 290 290
313 313 312 311 310 309 309 308 308 307 306 305 304 303 302 302 301 300 300 299 299 299 299 299 299 299 299 300 300 301 301 300 300 299 298 297 297 296 295 295 294 293 292 290 289 289 288 289 290 290 289 288 290 293 294 292 290 290 290 290 290 290
312 311 311 309 308 308 307 307 306 305 304 303 302 302 301 300 300 299 299 299 299 299 298 298 298 298 298 299 299 298 298 297 297 296 296 296 296 296 296 295 295 295 294 293 292 292 291 291 291 290 289 289 291 293 293 291 290 289 289 289 289 289
310 309 308 307 307 306 306 305 305 304 304 303 302 302 301 300 300 299 299 299 299 298 298 298 298 298 298 297 297 297 297 296 296 296 296 297 297 296 296 296 295 295 295 294 294 293 293 292 292 291 291 292 292 292 291 290 289 289 289 289 289 289
307 307 306 306 306 305 305 305 305 304 304 303 303 302 301 301 300 300 299 299 299 298 298 298 298 297 297 297 297 297 298 298 298 298 298 298 297 297 296 296 295 295 294 293 293 293 292 292 292 292 292 291 291 290 290 289 289 288 288 288 288 288
306 306 306 306 306 305 305 305 305 305 305 304 303 303 302 301 301 300 300 300 300 299 299 299 299 298 298 298 299 299 299 299 298 298 297 297 297 296 295 294 293 293 292 291 291 291 290 290 290 290 290 289 289 289 288 288 287 287 287 287 287 287
307 307 307 306 306 306 305 304 304 305 305 304 303 303 302 302 302 302 301 301 301 301 300 300 300 299 299 299 299 298 298 297 297 296 295 295 294 293 292 291 290 290 290 289 289 289 288 288 288 288 287 287 287 287 286 286 286 286 286 286 286 286
307 307 307 307 306 305 304 303 302 304 304 304 304 303 303 303 303 302 302 302 301 301 300 300 299 298 297 297 296 296 295 295 294 293 293 292 291 291 290 290 290 290 289 289 289 289 289 288 288 288 288 288 288 287 287 287 287 287 287 287 287 288
306 306 306 306 305 304 304 303 302 303 304 304 303 303 302 302 302 302 301 301 300 299 298 298 297 296 295 295 294 294 293 293 292 292 292 291 291 291 291 291 291 291 290 290 290 290 290 290 290 289 289 289 289 289 289 288 288 288 288 288 288 288
305 305 305 305 304 303 303 303 302 302 302 302 302 301 301 300 300 299 299 298 297 297 296 295 295 295 294 294 293 293 293 293 292 292 292 292 291 291 291 291 290 290 290 290 290 290 290 290 289 289 289 289 289 289 289 289 288 288 288 288 287 287
304 304 304 304 303 302 302 302 301 301 300 300 299 299 298 298 297 297 296 296 296 295 295 295 294 294 294 293 293 293 292 292 291 291 291 291 290 290 290 290 290 290 290 290 289 289 289 289 289 289 289 289 289 289 289 289 288 288 288 287 287 287
303 303 303 302 301 300 300 299 299 298 297 297 297 297 296 296 296 295 295 295 294 294 293 293 293 292 292 292 291 291 291 290 290 290 290 290 290 290 290 290 290 290 290 289 290 290 290 290 290 290 290 289 289 289 289 289 288 288 288 287 287 286
300 300 299 299 298 297 297 297 297 296 296 296 295 295 294 294 294 293 293 292 292 292 291 291 291 291 291 290 290 290 290 290 290 290 290 290 290 290 290 290 290 290 290 290 290 290 290 290 290 289 289 289 289 288 288 288 287 287 287 286 285 285
297 297 296 296 296 296 296 296 295 295 294 294 293 292 292 292 292 292 291 291 291 291 290 290 290 290 290 290 290 290 290 290 290 290 290 290 290 290 290 290 290 290 290 290 290 290 289 289 289 289 288 288 288 287 287 286 286 285 285 284 283 283
296 295 295 295 296 296 295 295 294 293 292 292 292 291 291 291 291 291 291 291 291 291 291 290 290 290 290 290 290 290 290 290 290 290 290 290 290 290 290 290 290 290 290 289 289 289 289 288 288 288 287 287 287 286 285 285 284 284 284 283 282 282
295 294 294 295 295 294 293 293 292 292 291 291 291 291 291 291 291 291 291 291 291 291 291 291 290 290 290 290 290 290 290 290 290 290 290 290 290 290 290 290 289 289 289 288 288 288 287 287 287 287 286 286 285 284 284 284 283 283 283 282 282 281
294 293 293 293 293 292 292 292 292 291 291 291 291 291 291 291 291 291 291 291 291 291 291 290 290 290 290 290 290 290 290 290 290 290 290 290 290 289 289 289 288 288 288 287 287 287 286 286 286 285 285 284 284 283 283 283 282 282 282 281 281 280
293 293 293 292 292 292 291 291 291 291 291 291 291 291 291 291 291 291 291 291 291 290 290 290 290 290 290 290 290 290 290 290 290 290 290 289 289 288 288 288 287 287 287 286 286 286 285 285 284 284 283 283 283 282 282 282 282 281 281 280 279 279

ECMWFFLT1_850_thetae_069.txt.gz
Theta_e
317 318 318 319 319 318 318 317 317 317 317 317 317 316 316 316 315 315 315 314 314 313 313 312 311 311 310 309 308 308 309 313 316 315 316 319 319 317 317 318 320 320 319 319 317 315 315 315 315 315 316 317 317 316 316 315 314 312 311 312 310 306
318 318 319 319 319 318 318 318 318 318 318 318 317 317 317 316 316 316 315 315 314 314 313 313 312 311 311 309 308 308 309 312 314 314 316 318 317 316 317 319 319 318 318 318 317 315 314 314 315 315 316 316 316 316 314 312 309 307 308 309 307 304
318 319 319 319 318 318 318 318 318 318 318 318 318 318 318 317 317 316 316 315 314 314 313 313 313 311 310 309 309 308 308 310 314 315 315 315 315 317 318 318 318 317 317 317 316 315 313 313 314 315 316 316 316 315 312 306 302 303 305 306 305 304
318 319 319 319 318 319 319 318 318 318 318 318 318 318 318 317 317 317 316 315 314 313 313 313 312 311 310 310 309 308 307 308 311 313 312 313 315 317 317 316 316 316 316 316 316 315 314 313 314 315 316 316 315 314 308 300 299 302 304 304 304 303
318 319 319 319 319 319 318 318 318 318 318 318 318 318 318 317 317 317 316 315 314 313 312 312 312 311 310 309 309 308 308 308 309 309 311 313 316 316 315 315 316 316 316 316 316 316 314 313 314 314 315 315 316 313 304 297 298 301 302 302 302 301
318 319 319 319 319 319 318 318 318 318 318 317 317 317 317 317 317 317 317 316 314 313 313 312 312 311 310 309 309 308 308 308 308 310 311 312 313 313 314 315 315 316 315 315 315 315 314 314 314 314 314 314 315 312 303 296 296 299 300 300 300 297
318 318 318 319 319 318 318 318 318 318 317 317 317 317 317 317 317 317 317 317 315 313 313 313 312 311 310 310 309 308 307 307 308 310 311 310 310 312 313 315 315 315 314 313 314 314 314 314 314 313 313 313 313 310 302 296 295 296 298 298 296 294
318 318 318 319 319 318 318 318 318 318 317 317 317 317 317 317 317 317 317 317 316 314 314 313 312 311 310 310 309 308 307 307 308 310 310 309 310 312 314 315 315 314 314 313 313 314 314 314 313 313 313 312 312 308 300 295 294 295 295 295 294 293
318 318 318 318 318 318 318 318 317 317 317 317 317 317 317 317 317 317 317 317 316 315 314 313 312 311 310 310 309 308 308 307 308 309 310 310 311 313 314 314 314 313 313 312 313 313 314 314 313 313 312 311 312 307 299 294 294 294 294 293 292 292
318 318 318 318 318 318 318 318 317 317 316 317 317 316 316 316 316 317 317 317 316 316 315 313 312 311 310 309 309 308 308 308 308 309 310 310 312 313 314 313 312 311 311 312 313 313 313 313 312 312 311 311 311 306 298 294 294 294 293 293 292 293
318 318 317 317 317 318 318 317 317 317 316 316 316 316 316 316 315 316 316 316 317 316 315 314 312 311 310 309 309 308 308 308 307 308 309 310 312 313 314 312 311 310 311 312 312 312 311 311 310 310 310 310 310 305 297 293 294 293 293 292 292 292
318 318 318 317 317 318 318 317 317 316 316 316 316 316 316 315 315 316 316 316 317 316 315 314 312 311 310 309 308 308 307 307 307 307 308 310 311 313 313 312 311 310 311 312 312 310 310 309 309 309 308 308 308 303 296 293 294 293 292 293 292 292
316 317 317 317 317 318 317 317 316 316 315 315 315 315 315 315 315 315 316 316 316 316 315 314 313 311 309 309 308 308 307 307 307 307 307 309 311 312 312 312 311 310 311 311 311 309 309 309 309 309 308 306 303 299 294 292 293 293 292 292 292 291
316 316 316 316 317 317 316 316 316 315 315 315 315 315 314 314 314 315 315 315 315 315 315 314 313 311 309 309 308 307 307 306 307 307 308 309 310 311 311 311 310 310 310 311 310 309 309 309 308 308 306 301 297 294 292 292 293 293 292 292 291 291
316 316 316 316 316 316 316 316 316 316 316 316 316 315 314 314 314 315 315 315 315 315 315 314 313 311 309 308 308 307 307 306 306 307 308 309 310 310 310 310 310 310 310 310 310 309 309 308 308 307 305 300 294 291 292 292 292 292 292 292 291 291
316 316 316 316 316 316 316 316 316 316 316 316 315 315 315 314 314 315 315 314 314 314 314 313 312 310 309 308 307 307 306 306 306 307 308 309 310 309 309 309 308 308 309 309 309 308 308 307 307 305 303 300 295 291 291 291 292 292 292 291 291 291
316 316 316 316 316 315 315 316 315 316 316 315 315 315 315 315 314 315 314 314 314 313 313 313 311 309 308 307 307 306 306 305 305 306 307 308 308 308 307 307 307 306 307 307 307 306 306 306 305 303 302 298 293 290 291 291 291 291 291 290 290 291
315 315 315 315 315 315 315 315 315 315 315 315 315 315 315 315 315 314 314 313 313 313 313 312 311 309 307 306 306 306 305 304 304 305 306 307 307 307 306 306 306 306 306 306 305 305 304 304 303 302 299 296 292 290 290 290 290 290 290 290 290 290
315 315 315 315 315 315 315 314 314 315 314 314 314 314 314 314 314 314 313 313 312 312 312 311 310 307 306 306 306 305 304 303 303 304 305 306 306 305 305 305 305 305 305 305 304 303 302 302 301 299 296 293 291 290 289 290 290 289 289 289 289 290
314 314 314 314 314 314 314 314 314 314 314 314 314 314 314 314 313 313 312 312 312 311 311 310 308 306 305 305 305 305 304 303 303 304 304 305 305 305 305 305 305 304 303 303 301 300 300 298 297 296 293 291 290 289 289 289 289 289 288 289 289 289
314 314 314 314 313 313 313 313 313 313 313 313 314 314 314 313 313 312 312 311 311 310 309 307 306 305 304 304 304 304 303 303 303 304 304 304 304 304 304 303 303 302 301 300 299 298 298 296 294 293 292 289 288 288 289 289 289 288 288 288 288 289
314 314 314 314 314 313 313 313 313 313 313 314 314 314 313 313 312 311 311 310 309 308 306 305 304 303 303 303 303 303 303 303 303 303 303 303 303 302 301 300 300 299 298 298 297 297 297 296 295 293 290 289 288 288 289 289 288 288 288 288 288 288
314 314 314 314 314 314 314 313 313 313 313 313 313 313 312 312 311 310 309 308 307 305 304 303 303 302 302 302 302 302 302 302 302 302 302 302 301 300 299 298 298 298 297 297 297 296 297 296 293 290 288 287 287 288 288 288 288 288 288 288 288 289
313 314 314 314 314 313 313 313 313 313 313 313 312 312 311 310 309 308 307 306 305 304 303 302 302 301 301 300 300 301 301 301 301 301 300 300 299 299 298 298 298 297 297 297 297 296 296 294 292 288 287 287 287 287 287 288 288 288 288 289 289 289
313 313 313 313 313 313 313 313 312 312 312 311 311 310 309 308 308 307 306 305 304 303 302 301 301 300 300 299 299 299 300 300 300 299 298 298 298 298 298 297 297 297 297 297 297 296 295 294 292 289 288 287 287 287 288 288 288 289 289 289 289 290
312 312 313 313 312 312 312 311 311 310 310 309 309 308 307 307 306 305 304 303 303 302 301 301 300 299 299 299 299 299 299 299 298 298 298 298 298 298 297 297 296 297 297 297 297 296 295 294 293 291 290 289 288 288 288 288 289 289 289 290 290 290
312 312 312 312 312 311 311 310 309 309 309 308 307 307 306 305 305 304 303 302 302 301 300 300 299 299 299 298 298 298 298 298 298 298 298 298 297 297 297 297 297 297 297 297 296 296 296 295 294 294 293 291 290 290 289 290 290 290 290 290 291 291
311 311 311 310 310 310 309 308 308 307 307 306 306 305 305 304 304 303 302 301 301 300 300 299 298 298 298 298 297 297 298 298 298 298 297 297 296 296 296 297 297 297 297 296 296 296 296 295 295 295 294 293 293 292 292 292 292 292 292 292 292 292
310 310 309 309 308 307 307 306 306 306 305 304 304 304 303 303 303 302 301 301 300 300 299 299 298 298 297 297 297 296 296 296 296 296 296 296 296 297 297 297 297 297 297 296 296 296 295 295 295 295 294 294 294 293 293 293 293 293 292 292 292 291
309 308 307 307 306 305 305 305 305 305 304 303 303 303 303 302 302 302 301 301 300 300 299 299 299 298 297 296 296 296 295 295 295 295 296 297 297 297 297 297 297 296 296 296 295 295 294 294 294 293 293 293 292 292 292 291 291 290 290 290 289 289
308 306 305 305 304 304 304 304 304 303 303 302 303 303 303 302 302 301 301 301 300 300 300 299 299 298 298 296 296 296 296 296 296 296 297 297 297 296 296 295 295 294 294 293 293 293 292 292 292 291 290 290 290 290 289 289 289 289 289 288 288 288
307 305 304 303 302 303 303 303 303 302 301 301 302 303 303 303 302 302 301 301 301 300 300 299 298 298 298 297 297 297 297 296 296 295 295 294 294 293 293 292 292 292 291 291 291 290 290 290 290 289 289 289 289 289 289 289 289 289 289 288 289 288
307 306 304 302 302 303 303 303 302 302 302 302 302 303 303 303 303 303 302 302 301 301 300 299 299 298 298 298 298 298 297 296 295 293 292 292 292 291 291 290 290 290 290 290 290 290 289 289 289 289 289 289 289 289 289 289 289 289 289 288 288 287
307 306 305 304 303 303 303 303 303 303 304 303 303 303 303 304 304 304 304 302 301 301 300 300 299 299 299 299 298 297 297 296 295 293 291 291 291 290 290 290 290 290 290 290 289 289 289 289 289 289 289 289 289 289 289 289 288 288 287 287 286 286
306 306 305 304 304 304 304 304 304 304 304 304 304 304 304 303 303 303 303 303 302 301 301 300 300 299 299 298 297 296 295 294 294 293 292 291 290 290 290 290 290 290 289 289 289 289 289 289 289 289 289 289 289 288 288 288 287 286 286 285 285 285
305 305 305 304 304 305 305 305 304 304 304 304 303 303 303 302 302 302 302 302 301 300 300 299 298 297 297 296 295 294 293 293 293 292 291 291 290 290 290 289 289 289 289 289 289 289 289 289 289 289 289 288 288 287 287 286 286 285 285 284 284 284
304 304 304 304 304 304 304 303 303 303 303 302 301 300 300 299 299 299 299 299 298 297 297 296 295 295 294 294 293 293 292 292 292 291 290 290 290 290 290 290 290 289 289 289 289 289 289 289 289 288 288 287 287 286 286 285 285 284 284 284 283 283
303 302 302 303 303 303 302 302 302 301 300 299 298 297 297 296 296 296 296 295 295 294 294 294 293 293 293 292 292 292 291 291 291 290 290 290 290 290 290 290 290 290 289 289 289 289 289 288 288 287 287 286 286 285 285 284 284 284 284 283 283 283

ECMWFFLT1_850_thetae_072.txt.gz
Theta_e
317 317 317 317 317 316 317 318 318 318 318 318 318 318 318 317 317 317 317 317 317 316 316 315 315 314 314 313 313 312 311 311 310 309 309 307 308 313 315 315 319 321 320 319 318 317 318 319 320 320 318 317 316 315 315 316 315 315 315 315 314 311
317 317 317 317 317 317 318 318 318 318 318 318 318 318 318 317 317 317 317 317 317 317 316 316 315 314 314 314 313 312 312 311 310 309 308 307 309 314 314 315 319 321 320 318 316 315 317 319 320 319 318 316 316 315 315 316 316 316 315 315 314 313
317 317 317 317 317 317 318 318 318 318 318 318 318 318 318 317 318 317 317 318 317 317 317 316 315 314 314 314 313 313 312 311 310 309 308 307 308 310 313 315 318 320 320 319 316 316 318 319 319 318 317 316 315 315 315 315 315 315 315 314 313 313
317 318 317 317 318 318 318 318 318 318 318 318 318 317 318 317 317 317 318 318 318 318 317 317 316 315 314 314 313 313 312 312 311 310 308 307 307 309 313 316 317 318 319 318 317 317 318 319 318 317 316 316 315 314 314 315 315 314 314 313 313 312
317 318 317 317 317 318 318 318 318 318 318 318 318 317 317 317 317 317 317 318 317 317 317 317 317 316 315 314 313 313 312 312 311 310 308 307 306 309 313 315 315 316 317 316 316 317 318 318 317 316 316 316 315 313 313 314 314 313 313 313 312 311
317 318 317 316 317 318 318 318 318 318 318 317 317 317 317 317 317 317 317 317 317 317 317 317 317 316 316 315 313 313 313 312 311 310 309 307 306 307 311 313 314 315 315 315 316 317 317 316 315 315 316 316 315 313 313 313 313 312 312 311 310 307
317 317 316 316 316 317 318 318 318 318 318 317 317 317 317 317 317 317 317 317 317 317 317 317 317 317 317 315 313 312 312 312 311 310 309 308 307 307 310 313 314 314 313 314 315 316 316 316 315 315 316 316 315 313 313 313 312 311 309 306 304 301
316 317 316 316 316 317 317 318 318 318 317 317 317 317 317 317 317 317 317 317 317 317 317 317 317 317 317 316 314 312 312 312 311 310 309 309 307 307 309 312 312 312 312 313 315 315 315 315 315 315 315 315 314 314 313 313 311 310 307 302 300 300
316 316 316 316 317 317 317 317 317 318 317 317 317 317 317 317 317 317 317 317 316 316 317 316 317 317 316 315 313 312 311 311 311 310 309 309 307 307 308 309 309 310 311 313 313 313 314 315 315 314 314 314 314 313 313 312 310 308 304 300 299 301
316 315 315 315 316 317 318 318 318 318 317 317 317 317 317 317 317 317 316 316 316 316 316 316 316 316 315 314 313 312 311 311 311 310 309 308 307 306 307 308 309 310 310 311 311 313 314 314 314 313 313 313 313 313 313 312 310 307 303 299 299 301
316 316 315 315 315 315 316 317 318 318 317 317 317 316 317 316 316 316 316 316 316 316 316 315 315 316 315 314 313 312 311 310 310 310 309 308 307 306 306 307 309 309 309 310 311 313 313 312 312 312 312 312 313 313 312 311 309 306 302 298 298 299
315 315 315 316 315 315 315 316 317 317 317 317 316 316 316 316 316 316 316 315 315 316 316 315 315 315 314 314 313 312 311 310 310 309 308 308 307 306 306 306 308 308 309 311 312 313 312 311 311 311 311 312 312 311 310 308 306 304 300 297 297 296
315 316 316 316 316 316 316 316 316 316 317 317 317 316 316 316 316 316 315 315 315 315 315 315 314 314 314 313 313 312 311 309 309 309 308 307 307 307 307 307 308 309 310 312 312 312 311 310 310 311 311 311 310 309 308 306 305 303 298 295 294 293
316 316 315 315 316 316 316 316 316 316 316 316 316 316 316 315 315 315 315 315 315 315 315 314 314 314 313 313 312 311 310 309 308 308 308 307 306 307 307 308 308 310 311 311 311 311 310 309 310 311 311 310 309 308 307 305 303 300 296 293 291 291
315 315 315 315 316 316 316 316 316 316 316 316 316 315 315 315 315 314 315 314 314 315 314 314 314 313 313 312 311 310 309 308 308 308 307 306 306 306 307 307 308 309 310 310 310 310 309 309 310 311 310 309 308 306 305 303 298 295 293 291 290 290
315 315 315 315 315 316 316 316 315 316 316 315 315 315 315 315 315 315 314 314 314 314 314 314 313 313 312 312 311 309 309 308 308 308 307 306 305 305 306 306 307 308 310 310 310 309 309 309 310 310 309 308 306 304 302 298 294 291 291 290 290 290
315 315 315 315 315 315 315 315 315 315 315 315 315 315 315 315 315 314 314 314 313 313 313 313 313 313 312 311 310 309 308 308 307 307 306 305 304 304 305 306 307 308 309 309 309 308 308 309 309 308 308 306 304 302 299 294 291 290 290 289 289 289
315 315 315 315 315 315 315 315 315 315 315 315 315 315 315 314 314 314 314 313 313 313 313 312 312 312 311 311 310 309 307 307 307 306 306 304 303 304 305 306 307 308 308 308 307 307 307 307 307 307 306 304 303 301 297 292 290 289 289 289 288 288
315 315 315 315 315 315 314 314 314 314 314 314 314 314 314 314 313 313 313 313 313 312 312 311 311 310 310 310 308 307 307 306 306 305 305 304 303 304 305 306 307 307 307 307 306 306 306 306 305 305 304 303 302 300 296 292 290 289 289 288 288 288
315 314 314 314 314 314 314 314 314 313 313 313 313 313 313 313 313 313 313 313 312 312 311 311 310 310 309 308 307 306 306 306 305 304 304 303 303 304 305 306 306 306 306 306 305 305 305 305 304 303 302 301 300 298 296 293 290 289 288 288 288 287
313 314 313 314 314 314 314 314 314 313 313 313 312 312 312 312 312 312 312 312 312 312 311 310 310 309 308 306 306 305 305 305 304 303 303 302 303 304 304 305 305 305 304 304 304 304 304 303 303 302 300 300 299 298 296 293 290 289 288 288 287 287
313 313 313 313 313 313 313 314 314 314 314 313 313 313 312 312 312 312 312 312 311 311 310 309 309 308 306 305 305 304 304 304 304 303 302 303 303 303 304 304 304 303 303 303 303 303 303 302 301 301 300 299 298 296 294 293 290 289 288 287 287 287
313 312 312 312 312 312 313 313 313 314 314 313 313 313 313 313 312 312 311 311 310 309 309 308 307 306 305 304 304 303 303 303 303 302 302 303 303 303 303 303 303 303 302 303 302 302 302 301 301 301 300 298 295 293 291 291 290 289 288 287 287 287
313 313 312 312 312 312 312 313 313 313 313 313 313 313 313 312 312 311 311 310 309 308 307 306 305 304 304 303 303 303 303 303 302 302 302 303 303 303 302 302 302 302 302 302 302 301 301 300 299 298 296 294 292 291 289 289 289 289 289 288 288 288
312 313 312 312 312 311 312 312 312 312 313 312 312 312 312 311 311 310 309 308 308 307 306 305 304 303 303 302 302 302 302 302 301 302 302 302 302 301 301 301 301 301 301 302 301 300 299 297 295 294 292 290 290 289 288 288 288 289 289 289 288 288
312 312 312 312 311 311 311 311 311 311 311 311 311 311 310 310 309 308 307 306 306 305 304 303 302 302 302 302 301 301 301 301 301 301 301 301 301 300 301 301 301 301 301 300 299 298 297 295 294 292 290 289 288 288 287 287 287 287 288 288 287 288
311 310 311 311 311 310 311 310 310 310 310 310 310 309 308 308 307 306 306 305 304 303 302 302 301 301 301 301 300 300 300 300 300 301 300 300 300 300 300 301 301 301 300 298 297 297 296 295 294 291 289 287 286 286 286 286 286 286 287 287 287 288
309 309 310 310 310 310 310 310 309 309 310 309 308 307 306 306 305 305 304 304 303 302 302 301 301 300 300 299 299 299 299 299 300 300 300 299 300 300 301 301 300 299 298 297 297 297 296 295 293 291 288 286 286 286 286 286 286 286 286 287 287 288
309 309 309 310 310 310 310 309 309 309 309 308 307 306 305 304 304 303 303 302 302 301 301 301 300 300 299 298 298 297 298 298 299 299 299 299 300 300 300 299 298 298 298 298 297 297 296 295 294 292 290 288 287 287 286 286 287 287 287 288 288 288
309 309 309 309 310 310 309 309 308 308 308 306 306 305 304 303 302 302 301 301 301 300 300 299 299 299 299 298 297 297 298 298 298 298 299 299 300 300 299 298 298 298 298 298 298 297 297 296 295 294 293 291 290 289 289 288 288 289 289 289 290 290
309 309 308 309 309 308 308 308 307 307 306 306 305 304 303 302 301 301 300 300 300 300 299 299 299 299 298 298 297 297 297 297 297 297 297 297 297 298 298 298 298 298 298 298 298 298 297 297 296 295 294 293 293 292 291 291 291 291 291 291 291 291
308 308 308 308 308 307 306 306 305 305 304 304 304 304 303 302 301 301 300 300 300 300 300 299 299 298 298 298 298 298 297 296 296 296 297 297 297 297 297 298 298 297 297 297 296 296 296 295 295 294 294 293 293 292 292 292 291 291 290 290 289 289
308 308 308 308 308 307 305 304 304 303 303 303 303 303 302 302 302 301 301 300 300 300 300 300 299 299 299 298 298 298 298 297 296 295 296 296 297 297 297 296 296 296 296 295 295 294 293 293 292 292 292 291 291 290 290 290 289 289 289 288 288 288
307 308 308 308 307 306 305 304 303 302 303 303 303 302 301 301 301 302 301 301 300 300 300 300 300 300 299 299 298 298 298 298 297 296 295 295 295 296 296 295 295 294 294 293 293 292 291 291 290 290 290 289 289 289 289 289 289 288 288 288 288 288
307 307 307 306 306 305 304 303 302 302 302 302 302 302 301 301 302 302 302 302 302 301 301 301 301 300 299 299 298 297 297 298 298 297 296 295 294 294 293 293 292 292 292 291 290 290 289 289 289 289 289 289 289 289 289 288 288 288 288 288 287 287
306 306 306 306 305 304 303 302 301 301 302 302 302 301 301 302 303 303 302 302 302 302 302 301 301 300 299 298 298 298 298 298 298 298 297 297 295 293 291 291 290 290 290 290 290 289 289 289 289 289 289 289 289 289 289 288 288 288 287 287 286 285
305 306 305 305 304 304 303 302 301 301 301 302 301 301 301 302 303 302 301 301 301 301 301 301 300 299 299 299 298 298 298 298 297 297 296 296 295 293 291 290 290 290 289 289 289 289 289 289 289 289 289 289 289 289 288 288 287 287 286 285 285 284
304 305 304 304 304 303 302 302 301 300 300 301 301 301 302 302 302 302 300 300 300 300 300 299 299 299 299 299 298 298 297 297 296 295 294 294 293 292 291 291 290 290 289 289 289 289 289 289 289 289 289 289 288 288 287 287 286 285 285 284 284 284

ECMWFFLT1_850_thetae_075.txt.gz
Theta_e
316 317 316 316 317 316 316 316 316 316 316 316 317 317 317 316 317 317 317 317 317 317 317 316 317 317 316 316 315 315 314 313 313 312 312 313 312 311 311 310 309 311 314 318 320 321 321 321 322 322 322 322 322 322 321 321 320 319 319 319 319 317
316 317 316 317 316 316 316 316 316 316 315 316 317 317 317 317 317 317 317 317 317 317 317 317 317 317 317 317 316 316 315 314 313 313 312 312 312 312 311 310 309 309 313 318 319 319 319 319 320 321 321 321 320 320 320 320 320 319 318 318 318 317
316 316 316 316 316 316 316 316 316 316 315 317 317 317 317 317 317 317 317 317 317 317 317 317 317 317 317 317 316 316 315 315 314 313 312 312 311 311 311 310 308 306 309 314 316 317 318 318 319 320 320 319 319 319 320 320 319 318 317 317 317 316
317 317 316 316 315 316 316 316 317 316 316 317 317 317 317 317 317 317 317 317 317 317 317 317 317 317 317 317 317 316 315 315 314 312 312 312 311 311 310 310 308 305 308 314 315 316 318 320 320 320 319 317 316 317 319 320 319 318 317 316 316 316
316 317 316 316 316 315 315 316 316 317 317 318 317 317 317 317 317 317 317 317 317 317 317 317 317 317 317 317 317 317 316 314 313 312 312 312 311 311 310 310 308 306 309 314 314 314 317 319 319 318 317 315 315 317 318 318 317 317 316 315 315 315
315 316 316 316 316 316 315 315 316 317 317 317 317 317 317 317 317 317 317 317 317 317 317 317 317 317 317 317 317 317 316 315 313 312 312 311 311 310 310 309 308 307 308 310 312 313 316 318 318 318 317 315 315 317 317 316 316 316 315 314 314 313
315 316 315 316 316 316 316 315 315 316 317 318 317 317 317 317 317 317 317 317 317 317 317 317 317 317 317 317 317 317 316 315 314 313 312 311 311 310 310 309 308 308 307 308 310 313 315 317 317 317 317 316 316 317 316 315 315 315 314 313 313 312
316 315 315 316 316 316 316 315 315 316 316 317 317 317 317 317 316 317 316 317 316 316 317 317 316 316 316 317 317 316 316 315 314 313 312 311 310 310 310 309 308 308 307 308 311 313 314 315 315 315 315 315 316 316 315 314 314 315 314 313 313 313
316 316 316 316 316 316 316 315 315 315 315 316 316 317 317 316 316 316 316 316 316 316 316 316 316 316 316 316 316 316 316 315 314 313 312 311 310 310 309 309 308 307 307 308 310 311 312 313 313 313 314 315 315 315 315 314 314 314 313 313 312 312
316 316 316 316 316 316 316 315 315 315 315 316 316 316 317 316 316 316 315 315 316 316 316 316 316 316 316 316 316 315 315 315 314 313 312 311 310 310 309 308 308 306 306 307 309 311 311 312 312 312 312 314 315 314 314 314 314 313 313 312 311 310
316 316 316 316 316 316 316 315 315 315 315 315 315 315 316 316 316 316 316 316 316 316 316 316 315 315 315 315 315 315 315 314 314 313 312 311 310 309 309 308 307 306 306 307 309 309 309 310 310 310 311 312 313 313 313 313 313 313 312 311 310 309
316 316 316 316 315 315 315 315 315 315 315 315 315 315 315 315 316 316 316 316 316 316 316 315 315 315 314 315 315 315 314 314 313 312 311 311 310 309 309 308 307 306 306 307 307 307 307 308 308 310 311 311 312 312 312 312 312 311 311 311 309 307
316 316 316 315 315 315 315 315 315 315 315 315 315 315 316 315 315 315 315 316 315 315 315 315 315 315 315 314 314 314 314 313 313 312 311 311 309 309 308 307 307 306 306 306 307 307 307 308 308 309 310 311 312 312 311 311 311 311 310 309 307 305
316 315 315 315 315 315 315 315 315 315 315 315 315 315 315 315 315 315 316 316 315 315 315 315 315 315 315 314 314 314 313 313 312 311 311 310 309 309 308 307 306 306 306 306 306 306 307 307 307 308 309 311 312 311 311 311 310 310 309 307 305 302
315 315 315 315 315 315 315 315 315 315 315 315 315 315 315 315 315 315 315 316 315 315 315 315 315 314 314 314 313 313 313 312 312 311 310 310 309 308 308 307 305 305 304 304 304 305 307 307 308 309 310 311 311 310 310 310 310 309 307 305 303 300
314 315 315 315 314 315 315 314 314 315 314 314 314 314 314 315 315 315 315 315 315 314 314 314 314 314 314 313 313 313 313 312 312 311 310 309 308 308 307 306 304 304 304 305 305 307 308 309 309 310 311 310 310 310 310 310 309 307 305 304 301 297
314 314 314 314 314 314 314 314 314 314 314 314 314 314 314 314 314 314 314 314 314 314 314 313 313 313 313 313 313 313 313 312 312 311 309 308 308 307 307 305 304 304 305 306 306 307 308 309 310 310 310 309 309 309 309 309 308 306 304 301 297 295
314 314 314 314 314 314 314 313 314 314 314 314 313 313 313 313 313 314 314 314 314 314 313 313 313 313 312 312 312 312 312 312 311 310 308 307 307 306 306 305 304 303 304 305 306 307 308 309 309 309 309 309 308 308 308 308 305 304 302 298 294 292
313 313 313 314 314 314 313 314 314 313 313 313 313 313 313 313 313 313 313 313 313 312 313 312 312 312 312 311 311 311 311 311 309 308 307 306 306 305 305 303 303 303 304 305 305 306 307 308 308 309 308 308 308 307 306 305 303 302 300 295 291 290
313 313 313 314 314 314 314 314 314 314 313 313 312 312 312 313 313 313 312 312 312 311 311 311 311 311 311 311 311 310 310 309 308 307 305 305 305 305 304 303 302 302 303 304 305 305 306 307 308 308 307 307 307 306 304 302 301 300 297 292 289 288
312 313 313 313 313 313 313 314 314 313 313 313 312 312 313 313 313 313 312 311 311 311 311 310 310 310 310 310 310 309 309 308 306 305 304 304 304 303 303 302 301 302 303 304 305 305 306 306 306 306 306 305 304 303 302 300 299 296 293 290 288 287
312 312 313 313 313 313 313 313 313 313 313 313 312 313 313 313 313 312 313 312 312 311 311 311 310 310 310 309 309 308 307 306 305 304 303 303 303 302 302 301 301 302 303 304 304 304 304 305 305 305 304 304 302 301 299 299 297 294 291 289 288 287
312 312 312 312 312 313 313 313 313 312 312 312 312 313 312 312 313 313 312 313 312 312 311 311 310 310 309 308 308 306 305 304 303 302 302 302 302 302 301 302 302 302 302 303 303 303 303 303 303 303 303 302 301 298 296 295 293 291 290 289 288 287
311 311 312 312 312 312 312 312 312 312 312 312 312 312 312 312 312 312 312 312 312 311 311 310 310 309 308 308 307 305 304 303 302 301 301 301 302 302 302 302 302 302 302 302 302 302 302 302 302 301 301 300 298 296 294 292 290 289 289 289 288 287
310 311 311 311 311 312 312 312 312 312 312 312 311 311 311 311 311 311 311 311 311 310 310 309 309 308 307 306 305 304 303 302 301 301 301 301 302 302 302 302 302 302 302 302 302 302 301 301 301 300 298 296 295 293 292 291 290 289 289 289 288 286
309 310 310 311 311 311 312 312 312 311 311 311 311 310 310 310 309 309 310 310 309 309 309 308 307 306 306 305 304 303 302 301 300 300 300 301 301 301 301 301 301 301 301 301 301 301 301 301 299 297 295 294 293 292 290 290 290 289 289 288 288 287
308 309 310 310 310 311 311 311 311 311 311 310 310 309 309 308 308 309 309 309 308 308 307 306 306 305 304 303 302 302 301 301 300 300 300 301 300 300 301 301 301 301 301 301 301 301 301 299 297 295 294 292 292 291 290 290 289 289 289 288 288 287
306 307 309 310 310 310 311 311 311 311 311 310 309 308 308 308 308 308 308 307 307 306 305 305 304 303 303 302 301 300 300 300 300 300 300 300 300 300 300 300 301 301 301 301 301 299 298 297 295 294 293 291 291 290 290 290 289 289 288 288 288 288
305 306 307 309 310 310 309 310 310 310 309 309 308 307 307 307 306 306 306 305 305 304 304 303 303 302 301 301 300 299 298 298 298 299 300 300 300 300 300 300 300 301 301 301 299 297 296 296 295 293 292 290 290 289 289 289 288 288 288 288 288 288
305 305 306 308 309 309 308 308 308 308 309 308 307 306 306 305 305 304 304 303 303 303 303 302 302 301 301 300 299 298 297 297 298 298 299 299 300 300 300 300 300 300 301 300 299 297 296 296 294 293 292 291 289 288 288 287 287 287 287 287 287 287
304 305 306 307 308 308 308 308 307 307 308 307 307 305 304 304 303 303 302 302 302 301 301 301 301 300 300 300 299 298 298 298 298 298 299 299 299 299 299 300 300 300 300 299 299 299 298 297 296 294 292 290 289 288 288 287 287 287 287 287 286 286
304 305 305 306 307 308 307 307 307 307 307 306 306 305 304 303 302 301 301 301 301 301 300 300 300 300 299 299 299 299 298 298 298 298 298 298 298 298 298 298 298 298 299 298 298 298 298 298 297 294 292 289 288 287 287 287 287 287 286 286 286 286
303 304 305 305 306 307 307 307 306 307 306 305 304 304 303 302 301 300 300 300 300 300 299 299 299 299 299 299 299 298 298 298 298 297 297 297 297 297 297 296 296 296 296 297 297 296 295 294 294 293 292 290 288 287 286 286 286 286 286 286 286 287
303 304 304 305 306 306 307 307 306 306 305 304 303 302 302 301 301 300 299 299 299 299 298 298 299 299 299 298 298 298 299 299 298 297 296 295 295 296 296 296 296 295 295 295 295 295 294 293 293 293 292 290 289 287 287 286 286 287 287 287 288 288
303 303 303 304 305 306 306 306 306 305 305 303 301 300 300 300 300 299 299 298 298 298 298 298 298 298 298 298 298 298 298 299 298 298 297 296 294 294 294 295 295 295 295 295 294 294 294 294 293 293 292 291 290 290 289 288 288 289 289 289 289 288
302 303 303 304 304 305 305 305 305 304 304 303 300 299 298 298 298 298 298 297 297 298 298 298 298 298 298 298 298 298 298 298 297 297 298 297 295 294 293 294 294 294 294 294 294 293 293 293 293 292 292 292 291 290 290 289 288 288 288 287 287 287
301 302 302 303 303 303 304 304 303 302 303 302 300 298 297 297 297 296 296 296 296 297 297 297 297 297 297 297 297 297 297 297 296 296 297 297 296 295 294 294 294 293 293 293 293 292 291 291 291 291 290 289 289 288 288 287 287 287 287 287 287 287
300 301 301 302 303 303 302 303 302 300 301 301 300 298 297 297 296 296 296 296 296 296 296 297 296 296 296 296 296 296 296 296 295 295 296 296 296 296 295 295 294 293 292 291 290 290 289 289 289 288 288 288 287 287 287 287 288 288 288 288 287 286